Location: Celina Division
(33.3022°N, 96.7580°W)
Time: 13:34:16
(UTC+00:00)

SKYMED 2 - Pass Details

Date: 08 December 2021
Orbit: 621 x 623 km, 97.9° (Epoch: 29 January)

Event Time Altitude Azimuth Distance (km) Brightness Sun altitude
Rises 12:24:21 0° 190° (S) 2,886 7.1 -11.2°
Reaches altitude 10° 12:26:44 10° 201° (SSW) 1,985 6.2 -10.8°
Maximum altitude 12:30:32 30° 262° (W) 1,120 4.4 -10.0°
Drops below altitude 10° 12:34:22 10° 325° (NW) 1,998 5.7 -9.3°
Enters shadow 12:35:38 - 331° (NNW) 2,459 6.2 -9.0°
